Regional Weather Roundup
Issued by NWS

Home | Current Version | Previous Version | Graphics & Text | Print | Product List | Glossary On
Versions: 1 2 3 4 5 6 7 8 9 10 11 12 13 14 15 16 17 18 19 20 21 22 23 24 25 26 27 28 29 30 31 32 33 34 35 36 37 38 39 40 41 42 43 44 45 46 47 48 49 50
000
ASUS45 KBOU 020207
RWRCO

WEATHER ROUNDUP FOR COLORADO
NATIONAL WEATHER SERVICE DENVER/BOULDER CO
700 PM MST SUN MAR 01 2015

NOTE: "FAIR" INDICATES FEW OR NO CLOUDS BELOW 12000 FEET WITH NO
SIGNIFICANT WEATHER AND/OR OBSTRUCTIONS TO VISIBILITY.

COZ001>005-013-030-031-020300-
...NORTHWEST COLORADO...

CITY           SKY/WX    TMP DP  RH WIND       PRES   REMARKS
CRAIG          CLOUDY    32  24  72 CALM      30.06S
HAYDEN         CLOUDY    28  19  69 SE8       30.06R WCI  20
MEEKER         CLOUDY    31  26  82 NE3       30.05S
MOUNT WERNER   NOT AVBL
STEAMBOAT SPGS CLOUDY    29  22  74 CALM      30.05F
WALDEN         CLOUDY    23  18  80 SE5       30.05R WCI  17
$$

COZ006>008-011-020300-
...WEST CENTRAL VALLEYS...

CITY           SKY/WX    TMP DP  RH WIND       PRES   REMARKS
GRAND JUNCTION LGT RAIN  40  33  76 S9        30.06R
MONTROSE       CLOUDY    34  32  92 CALM      30.09S
EAGLE          MOCLDY    36  27  69 E7        30.09S
RIFLE          CLOUDY    42  27  55 E5        30.05R
DELTA          CLOUDY    40  35  84 CALM      30.09R
NUCLA          CLOUDY    36  32  87 W3        30.10R
$$

COZ017>023-064>068-020300-
...SOUTHWEST COLORADO...

CITY           SKY/WX    TMP DP  RH WIND       PRES   REMARKS
DURANGO        CLOUDY    35  33  92 CALM      30.10R
CORTEZ         MOCLDY    37  35  92 NE3       30.06R
PAGOSA SPRINGS CLOUDY    35  35 100 CALM      30.13R
TELLURIDE      FLURRIES  34  31  88 E5        30.08S WCI  30
WOLF CREEK PAS CLOUDY    23  23 100 SW25      30.16R WCI   7
$$

COZ009-010-012-014-032>034-037-058>063-020300-
...CENTRAL COLORADO...

CITY           SKY/WX    TMP DP  RH WIND       PRES   REMARKS
ASPEN          FLURRIES  29  27  92 CALM      30.06R
BUENA VISTA    LGT SNOW  30  28  94 SE9       30.10R WCI  21
COPPER MTN     LGT SNOW  23  16  74 SE16      30.08S WCI  10
BERTHOUD PASS  CLOUDY    14   9  79 S5        30.10R WCI   6
COTTONWOOD PAS LGT SNOW  30  28  93 CALM      30.09S VSB 1
GUNNISON       CLOUDY    28  25  86 CALM      30.13R
KREMMLING      CLOUDY    34  23  64 CALM      30.08S
LEADVILLE      LGT SNOW  23  21  92 CALM      30.07S FOG
SALIDA         CLOUDY    25  22  89 SE18      30.19R WCI  11
SUNLIGHT       LGT SNOW  25  23  93 CALM        N/A
WILKERSON PASS LGT SNOW  23  21  93 SW3       30.13R VSB 1
$$

COZ069>075-020300-
...SAN LUIS VALLEY/SANGRE DE CRISTO MOUNTAINS...

CITY           SKY/WX    TMP DP  RH WIND       PRES   REMARKS
ALAMOSA        MOCLDY    31  28  89 N3        30.10R
LA VETA PASS   CLOUDY    30  28  93 S16G29    30.14R WCI  19
SAGUACHE       LGT SNOW  32  30  93 CALM      30.12R
$$

COZ035-036-038>040-020300-
...NORTHERN COLORADO FRONT RANGE...

CITY           SKY/WX    TMP DP  RH WIND       PRES   REMARKS
DENVER INTL AP MOCLDY    21  16  81 S6        30.23R WCI  13
DMNS CITY PARK   N/A     24  15  68 SE3       30.24R
AURORA         MOCLDY    20  15  82 SE7       30.23R WCI  11
FRONT RANGE AP NOT AVBL
ERIE MUNI ARPT MOCLDY    25  17  74 CALM      30.24S
BOULDER MUN AP CLOUDY    25  19  80 CALM      30.23S
CENTENNIAL     CLOUDY    21  15  78 SE5       30.21R WCI  15
BROOMFIELD     CLOUDY    25  18  74 MISG        N/A
FORT COLLINS   MOCLDY    21  16  79 S6        30.26R WCI  14
LONGMONT       CLOUDY    27  17  66 CALM      30.27R
$$

COZ041-046-047-076>085-087-088-020300-
...PIKES PEAK/PALMER DIVIDE AND SOUTHERN FOOTHILLS...

CITY           SKY/WX    TMP DP  RH WIND       PRES   REMARKS
COLO. SPRINGS  LGT SNOW  22  20  92 S10       30.23R FOG     WCI  11
A. F. ACADEMY  LGT SNOW  21  19  93 S10       30.19R FOG     WCI  10
ELLICOTT       NOT AVBL
FALCON         LGT SNOW  19  18  93 SE7       30.20S WCI  10
FORT CARSON    FLURRIES  22  20  93 S7        30.22R WCI  14
LIMON          CLOUDY    24  17  74 W6        30.25R WCI  17
MONUMENT HILL  LGT SNOW  19  18  93 SE9       30.16S WCI   9
TRINIDAD       CLOUDY    23  16  74 N3        30.25R
$$

COZ042>045-048>051-090-091-020300-
...NORTHEAST COLORADO...

CITY           SKY/WX    TMP DP  RH WIND       PRES   REMARKS
GREELEY ARPT   MOCLDY    27  12  54 SW3       30.25R
AKRON          MOCLDY    27  17  66 CALM      30.27R
BURLINGTON     CLOUDY    30  19  63 SE3       30.30R
WRAY           PTCLDY    31  17  54 SE5       30.30R WCI  27
STERLING       MOCLDY    27  19  74 W6        30.27R WCI  20
HOLYOKE        NOT AVBL
FORT MORGAN    CLOUDY    26  18  70 CALM      30.28R
$$

COZ086-089-092>099-020300-
...SOUTHEAST COLORADO...

CITY           SKY/WX    TMP DP  RH WIND       PRES   REMARKS
PUEBLO         CLOUDY    26  19  74 S5        30.29R WCI  20
LA JUNTA       CLOUDY    30  20  66 CALM      30.30R
LAMAR          PTCLDY    27  22  81 SE5       30.31R WCI  22
SPRINGFIELD      N/A     25  20  81 NE7       30.29R WCI  17
$$



USA.gov is the U.S. government's official web portal to all federal, state and local government web resources and services.